Find Starlink 4204

NORAD ID: 52854 Int'l Des: 2022-062 Owner: SPXS Country: US Constellation: starlink operational
LEOCIRCULAR

Current View

Loading 3D Globe...

About Starlink 4204

Description loading...

Upcoming Passes

Passes for default location (London). Set your location on the main map for personalized predictions.

Altitude History

Loading altitude history...

Two-Line Element Set

1 52854U 22062AA 26150.90343650 .00003073 00000-0 21121-3 0 9993
2 52854 53.1940 15.0418 0001474 70.6768 289.4383 15.08821608218330
Epoch: May 30, 2026 • Age: 20 hours

Current Status

Altitude 556.2 km
Velocity 7.58 km/s
Sub-Earth Point -46.06°S, 160.41°E
Launch Date Jun 17, 2022
Age 3.9 years
Type internet

Technical Details

Classification Payload
Mass 297.00 kg
Dry Mass 275.00 kg
Total Mass 297.00 kg
Length 0.20 m
Diameter 2.80 m
Span 9.00 m
Shape Box + pan
Manufacturer SPXS
Bus Type Starlink
Phase Status In Orbit
Owner/State SPXS/US

Most Searched